Location: El Manguito
(10.2358°N, 67.3634°W)
Time: 16:04:02
(UTC+00:00)

Landsat 7 - Pass Details

Date: 10 September 2024
Orbit: 689 x 691 km, 97.9° (Epoch: 10 October)

Event Time Altitude Azimuth Distance (km) Brightness Sun altitude
Rises 23:07:13 0° 158° (SSE) 3,057 6.8 -9.3°
Reaches altitude 10° 23:09:31 10° 152° (SSE) 2,140 6.0 -9.8°
Maximum altitude 23:14:03 50° 78° (ENE) 876 3.9 -10.9°
Drops below altitude 10° 23:18:35 10° 2° (N) 2,138 6.4 -12.1°
Sets 23:20:52 0° 357° (N) 3,054 7.2 -12.6°
